Wind_Speed
3 2 3 5 4 3 11 8 13 14 11 4 7 2 9 10 8 8 15 10 11 11 10 9 10 10 11 11 12 11 11 11 12 12 12 13 13 13 14 14 14 14 13 14 14 15 15 16 15
4 3 5 4 3 9 9 13 13 9 9 13 8 7 4 8 7 15 13 12 11 11 11 10 10 10 10 10 10 11 12 11 12 12 12 12 13 13 13 13 12 13 12 13 15 14 14 14 13
4 4 3 1 5 8 9 9 12 11 12 8 5 6 4 6 13 8 17 15 13 12 11 9 9 9 10 10 10 10 10 10 11 11 12 12 11 12 12 12 10 10 10 11 12 12 11 10 9
3 4 4 2 13 9 9 9 9 11 8 4 8 9 8 11 9 11 16 15 14 12 10 8 8 8 9 9 10 10 9 10 11 11 11 11 11 10 11 10 9 8 9 9 9 9 9 8 9
3 4 4 10 14 12 12 13 9 8 8 7 4 8 13 7 11 18 16 14 13 11 10 7 8 7 7 8 8 10 11 10 11 11 10 10 10 9 9 9 8 8 8 8 8 7 7 8 8
3 3 9 10 14 12 10 9 6 6 8 7 7 17 9 12 18 16 15 13 12 11 9 8 6 8 7 7 7 9 9 9 9 10 9 9 9 9 8 8 8 9 8 8 7 6 5 6 6
1 3 7 13 14 10 9 7 4 7 8 7 14 13 10 16 16 15 14 12 11 10 9 8 8 8 7 8 7 10 9 9 9 9 9 9 10 9 9 9 9 8 8 7 5 4 4 4 5
0 2 10 10 9 12 9 5 5 5 7 11 8 7 15 19 17 16 14 12 9 8 8 8 9 8 7 8 8 8 9 10 10 9 9 9 9 9 8 10 8 8 7 6 4 2 2 4 7
2 3 6 7 4 9 10 9 4 4 12 8 6 8 21 21 18 17 15 12 10 8 8 8 8 7 8 9 7 8 9 9 9 8 8 7 7 6 5 6 7 6 4 3 2 0 2 5 7
3 5 7 6 5 10 11 5 10 9 11 10 9 16 22 21 19 17 15 14 12 11 10 9 9 10 11 11 10 9 8 8 7 5 4 5 5 4 5 4 4 4 3 1 2 3 5 6 4
2 8 5 4 6 10 10 7 5 12 9 11 15 20 21 20 18 16 13 12 12 11 11 11 12 12 12 12 11 10 8 7 4 2 1 1 1 2 2 2 1 1 3 2 3 4 2 3 5
4 5 3 5 8 10 8 9 9 1 5 8 17 21 21 17 17 16 13 12 13 13 13 14 14 13 12 11 9 9 8 6 4 2 2 2 1 1 1 2 1 0 1 2 3 2 3 5 7
1 7 10 10 7 9 8 8 6 5 8 15 20 19 18 16 16 14 13 12 11 13 15 15 14 12 11 10 7 6 7 5 5 4 1 3 3 3 2 2 1 2 3 2 2 2 3 3 3
3 12 13 10 10 8 9 9 2 6 11 15 17 16 15 15 17 15 13 12 12 15 16 15 14 12 9 7 5 5 5 4 2 2 1 3 3 2 1 0 0 2 3 3 2 2 2 1 3
11 14 13 9 8 4 7 8 3 13 14 15 15 14 13 14 16 15 14 13 13 14 17 16 14 12 9 7 6 6 6 5 3 2 1 1 2 3 1 1 2 3 3 2 4 4 4 5 5
9 10 9 8 9 6 7 9 9 14 15 15 15 14 13 14 15 15 14 14 14 15 16 16 14 12 10 9 7 7 7 6 5 3 4 4 4 2 2 4 5 4 5 5 5 6 8 7 9
7 5 2 7 8 5 10 3 9 14 14 14 15 14 14 14 14 16 15 15 15 16 16 16 14 12 11 8 7 8 9 9 8 6 5 4 5 5 6 7 6 5 7 7 8 8 8 12 13
5 5 3 3 7 7 8 10 8 12 14 14 14 15 15 15 16 17 16 16 15 15 16 16 15 13 10 8 7 7 10 13 11 10 8 6 6 6 7 8 6 7 9 10 9 8 11 11 11
7 4 5 2 2 7 8 8 6 12 15 14 14 16 16 16 18 19 18 17 16 17 17 18 17 15 12 11 10 9 11 14 12 10 8 8 8 8 9 10 9 8 9 9 8 10 11 12 11
3 6 4 3 3 8 6 10 8 11 16 16 16 16 18 18 16 19 20 20 20 19 19 19 20 19 17 14 12 10 8 10 11 9 7 6 7 7 8 9 10 9 10 11 11 11 11 12 8
8 6 5 10 4 5 7 14 6 12 15 15 15 15 18 19 19 18 21 23 23 22 23 24 24 23 21 18 15 13 11 10 12 11 8 5 4 4 4 5 7 7 8 9 12 11 10 10 9
2 4 4 6 6 3 2 2 8 8 14 17 18 17 17 18 17 17 21 23 24 26 24 24 24 27 28 21 19 19 19 18 17 14 13 6 2 2 1 3 4 6 7 7 7 6 8 7 6
7 3 1 2 4 6 10 6 7 7 7 13 17 19 18 18 19 19 21 23 25 23 23 24 24 24 25 25 24 22 21 20 17 14 11 6 5 4 4 5 6 6 5 5 4 3 4 3 3
3 4 4 3 5 9 6 5 5 4 4 3 7 13 17 17 17 17 21 22 20 20 21 21 21 23 22 22 23 23 18 16 15 14 12 8 7 6 7 4 4 5 4 3 4 4 5 5 5
9 10 8 6 8 5 5 5 7 6 2 1 4 7 11 18 18 17 15 18 20 19 20 18 15 14 14 9 9 12 16 16 18 16 12 13 10 7 8 4 4 6 5 4 2 3 4 5 4
11 13 6 10 12 6 7 4 1 3 3 3 1 4 7 12 17 17 16 15 13 12 12 7 22 25 22 18 16 14 11 11 18 17 18 14 10 9 7 8 8 9 5 5 3 2 3 4 5
8 9 15 14 18 11 13 9 10 11 7 2 3 6 6 9 11 6 5 14 10 11 21 27 28 28 25 28 24 24 19 8 11 9 17 19 9 8 8 11 11 11 1 1 1 1 4 6 5
11 8 7 11 15 19 11 11 9 7 8 4 1 5 6 6 6 7 10 15 18 25 27 26 30 27 26 27 19 9 8 4 12 6 1 9 7 6 10 12 13 10 5 5 4 3 4 4 3
9 12 12 10 10 11 13 8 9 3 3 2 4 5 5 5 7 7 11 14 18 23 25 26 27 25 12 4 12 14 8 6 5 11 12 10 11 12 10 9 9 10 6 8 9 7 4 1 2
12 18 17 12 11 11 10 12 6 6 7 5 6 9 8 8 8 8 10 13 15 19 16 17 12 6 2 5 14 14 11 8 5 5 7 9 9 7 6 7 8 9 9 8 5 3 2 2 4
Wind_Direction
167 243 268 241 224 120 88 86 112 112 120 103 90 27 68 22 4 84 131 130 130 129 131 126 126 126 122 115 116 113 112 110 110 114 110 106 104 103 101 102 102 98 98 99 102 105 104 102 98
204 235 242 269 191 108 92 123 115 88 105 111 101 120 69 73 83 118 128 134 131 132 131 126 128 123 119 116 116 112 107 111 113 113 109 107 103 100 101 100 94 100 102 103 105 108 109 103 96
212 241 269 279 80 94 123 115 92 113 129 135 116 47 46 95 124 111 128 137 133 132 127 128 121 120 122 123 118 110 107 110 109 109 110 107 102 103 98 94 107 105 108 107 107 107 102 97 90
246 202 224 126 99 75 121 127 139 144 137 139 126 96 93 109 121 128 136 136 133 130 125 126 121 122 117 115 111 113 109 105 105 109 111 110 102 98 100 107 110 115 119 115 113 111 104 90 74
241 238 130 109 89 102 101 124 134 136 144 147 169 128 118 128 125 134 137 138 137 136 122 124 126 122 118 109 122 112 112 116 113 114 108 108 106 105 109 113 119 122 123 124 119 114 99 86 75
211 268 152 114 107 111 115 133 125 123 130 132 155 131 104 132 142 141 140 141 139 132 136 130 117 124 111 115 112 137 128 128 122 120 118 115 111 111 112 118 122 128 132 131 123 106 81 62 49
45 243 107 123 118 133 130 134 138 134 142 145 143 136 127 151 143 141 141 140 140 141 140 137 132 127 106 133 123 142 136 134 136 128 123 121 117 119 121 121 123 129 136 130 123 104 64 31 20
176 250 130 127 152 125 135 117 110 129 95 121 145 159 157 148 149 145 144 141 142 145 144 139 138 129 130 119 129 135 135 136 133 127 125 120 113 111 110 104 123 132 140 142 131 90 19 354 344
249 187 117 127 145 129 147 134 110 102 135 159 142 154 142 148 152 151 150 151 150 151 150 149 146 136 137 134 137 120 130 134 122 112 122 99 124 112 108 164 142 134 146 152 160 216 329 358 10
277 100 82 78 83 138 157 145 122 143 143 146 147 121 142 154 161 161 164 160 159 157 157 154 146 139 137 131 125 129 133 134 130 129 128 120 122 127 134 148 140 142 168 206 267 296 332 8 14
58 58 32 70 87 137 135 136 133 146 162 162 162 152 156 163 169 169 170 162 161 157 155 154 144 141 139 133 135 136 136 135 137 145 151 279 203 179 191 180 197 224 285 254 321 316 316 350 2
210 70 70 98 120 127 137 125 144 189 52 147 156 156 161 170 173 173 169 165 162 160 157 152 147 146 139 141 144 142 147 139 130 125 76 29 40 188 197 135 128 175 18 337 337 319 311 330 334
18 93 99 102 119 121 125 120 96 80 119 137 148 161 168 174 174 174 169 168 166 164 159 154 154 152 148 148 150 147 147 137 122 120 74 46 43 40 106 124 104 359 12 11 32 5 325 323 7
110 106 112 117 129 137 141 142 160 120 138 146 159 171 177 179 176 171 177 175 175 170 166 162 164 162 159 156 159 162 163 161 137 147 155 27 42 6 64 86 164 328 7 18 21 25 58 15 350
134 122 119 133 152 137 156 170 142 151 159 162 174 177 180 182 181 181 181 179 181 178 173 171 174 173 176 174 178 188 194 189 192 176 229 243 30 357 303 276 318 330 333 337 334 340 327 320 321
175 177 161 150 175 157 231 124 146 166 173 174 181 179 183 189 189 187 182 183 180 186 185 182 185 186 189 187 190 206 219 226 219 247 240 244 259 230 247 273 288 308 309 300 301 312 313 308 314
210 141 201 164 208 149 230 24 144 175 186 181 182 184 188 187 197 192 191 192 185 189 193 198 196 197 197 212 228 231 225 228 234 248 239 253 268 256 265 266 273 296 290 285 292 300 306 311 312
176 189 165 172 183 223 228 258 148 190 197 192 189 189 192 195 195 194 197 195 196 194 197 204 207 207 212 224 243 242 228 224 233 238 242 241 240 254 266 270 284 285 276 279 286 297 302 304 309
274 241 237 191 144 257 255 263 246 193 209 201 197 193 199 202 193 192 197 200 205 204 204 205 210 217 218 223 227 224 228 216 227 240 250 244 243 249 253 262 269 277 279 293 300 293 294 303 319
264 221 218 105 246 258 267 269 251 215 214 210 205 201 200 201 197 196 197 202 205 208 211 212 214 214 219 225 229 234 238 234 241 234 245 244 239 242 248 258 265 268 277 281 279 276 285 291 306
235 271 118 272 155 255 282 262 254 207 222 215 211 208 208 206 199 200 202 206 208 211 210 212 213 211 216 219 219 221 228 232 238 237 243 253 252 253 263 291 289 286 288 271 269 273 263 280 306
303 43 263 241 238 286 278 301 199 224 209 216 216 210 208 210 210 207 205 212 214 216 216 217 216 210 211 211 222 226 236 238 235 237 245 222 233 261 358 354 329 312 307 315 295 292 291 287 265
33 328 90 188 248 275 179 263 112 174 222 226 221 218 217 209 211 209 205 211 221 221 217 218 219 218 216 214 221 225 229 246 245 239 222 196 149 111 80 58 42 17 2 355 5 355 9 354 332
130 151 163 191 282 249 85 279 136 79 104 117 203 227 227 224 218 217 210 213 217 220 221 218 214 218 217 216 222 226 239 240 243 225 214 165 150 121 105 111 72 23 8 4 356 21 45 45 43
224 228 255 229 210 284 99 263 309 339 194 239 277 274 254 226 220 217 216 210 212 213 214 210 206 217 230 248 256 266 267 257 245 229 182 163 141 120 124 125 112 57 21 17 4 45 68 74 76
224 282 283 296 292 311 154 265 105 48 106 117 84 345 315 235 215 216 211 209 210 211 201 162 112 90 83 73 50 18 354 341 261 205 169 158 137 124 116 119 94 60 4 348 341 6 84 83 75
220 238 265 272 250 266 280 253 245 213 218 177 26 39 40 26 16 167 261 183 183 170 111 106 99 90 75 68 59 44 34 322 32 74 141 144 137 149 147 128 112 110 167 3 353 98 93 89 72
265 334 237 223 259 273 266 264 262 253 188 147 85 62 57 58 64 78 85 97 103 117 118 117 114 107 101 73 50 45 73 73 126 88 115 154 166 180 165 148 142 153 213 271 147 68 66 76 70
190 228 235 282 291 294 288 283 27 24 49 147 94 89 85 81 86 90 97 110 122 126 120 119 122 121 125 139 241 212 222 220 173 147 143 146 150 162 143 165 209 237 216 187 158 149 132 74 22
272 282 272 259 253 239 273 278 55 77 82 80 90 78 63 60 83 93 110 124 134 132 115 118 135 150 126 173 173 172 172 193 200 144 144 143 155 169 183 203 203 179 185 184 173 190 167 312 311
Height
781 782 781 777 781 764 786 799 783 795 795 788 791 794 799 801 802 821 821 824 826 829 832 834 834 835 835 835 835 836 836 836 837 838 838 839 840 840 841 841 842 843 845 845 846 846 846 846 847
783 783 780 769 778 794 802 783 794 791 791 791 795 796 800 813 808 814 820 826 828 830 832 835 835 836 836 837 837 837 838 838 839 840 840 841 842 843 843 844 845 846 847 846 847 847 847 847 848
783 782 774 772 773 790 800 786 796 794 792 794 799 794 801 814 812 815 822 826 829 832 833 836 837 837 838 839 839 839 839 840 841 842 843 843 844 844 845 846 847 848 848 848 849 849 849 850 850
781 777 769 776 788 784 795 791 793 796 796 794 793 808 809 812 815 818 825 828 831 833 835 837 838 839 839 840 840 840 841 842 843 844 845 845 846 846 847 847 848 849 849 850 850 850 850 851 850
779 769 780 781 786 781 778 783 786 793 795 797 794 808 813 817 819 822 826 829 831 834 836 839 839 840 840 841 841 842 843 843 844 846 847 847 848 848 847 848 848 849 850 851 851 851 851 852 852
776 770 781 789 792 785 783 783 786 790 794 799 801 805 813 819 821 824 827 829 831 834 837 839 840 841 842 842 843 844 845 845 846 847 848 848 848 848 849 849 849 850 851 851 852 852 853 853 853
777 772 780 781 793 794 789 781 786 791 796 800 796 808 815 818 822 825 829 831 833 835 837 839 841 842 843 843 844 845 846 846 847 849 849 849 849 849 849 850 851 851 852 852 853 853 853 854 853
775 770 782 782 791 798 786 786 786 789 799 795 796 814 818 816 823 827 830 833 834 836 838 840 842 843 844 845 846 847 847 847 849 850 850 850 850 850 851 851 851 852 853 853 853 853 854 853 853
772 776 788 786 785 792 785 791 789 790 798 798 799 800 808 819 824 826 830 833 836 838 840 841 843 845 846 847 848 849 849 849 851 852 852 852 853 853 853 853 852 852 853 854 853 853 853 853 852
771 778 780 771 774 784 786 786 793 796 799 803 803 804 813 820 823 824 827 829 833 836 839 841 842 845 847 848 850 852 852 853 854 854 855 854 855 855 855 854 854 853 854 854 854 854 854 853 853
773 778 776 774 770 775 784 789 787 793 800 797 804 808 814 818 821 822 824 827 831 835 838 841 843 846 847 850 851 853 854 855 856 856 856 856 856 856 855 855 855 855 855 855 854 855 854 855 854
775 771 771 774 773 780 789 787 792 790 789 788 797 806 812 816 818 821 824 828 831 834 837 840 843 847 849 851 852 854 855 856 857 857 857 857 856 856 856 855 856 856 856 856 855 855 854 854 854
775 772 771 774 778 780 786 792 795 798 791 794 802 807 810 813 817 821 825 829 831 835 837 840 845 848 850 852 854 855 855 856 857 858 857 858 858 857 857 857 857 857 857 856 856 855 854 854 853
774 771 781 782 784 785 791 795 791 800 797 801 805 808 810 812 816 820 826 829 832 835 839 842 845 848 850 852 854 855 856 857 858 858 858 858 859 858 858 858 858 857 857 857 856 856 854 853 852
771 784 782 785 786 791 785 802 797 795 797 803 807 808 810 813 816 820 825 829 833 836 838 842 845 848 850 852 854 855 856 856 857 858 858 857 858 859 859 859 858 858 857 857 857 856 855 854 852
779 777 795 789 786 789 789 801 795 793 796 802 805 807 811 813 816 820 824 828 832 835 839 842 845 847 850 852 853 854 855 856 857 858 858 858 858 858 859 859 858 858 858 857 856 855 853 851 849
786 797 798 799 782 788 793 795 790 791 794 798 802 805 808 811 815 819 823 827 830 834 839 843 845 847 850 852 854 854 854 855 856 857 857 858 859 859 859 858 857 858 857 856 855 853 853 851 848
796 796 792 795 787 788 793 793 787 789 792 795 797 801 804 807 810 816 820 824 828 833 837 842 845 847 850 852 853 853 853 854 855 855 855 856 857 858 858 857 858 857 856 855 854 854 852 851 848
782 788 797 786 785 790 790 789 780 785 787 790 793 797 800 802 805 811 817 821 825 830 834 838 842 845 848 849 850 850 850 851 852 854 854 854 856 856 856 856 856 856 855 855 855 854 851 850 847
781 788 790 787 787 791 786 790 775 776 783 781 787 789 793 796 799 805 812 816 820 825 830 835 838 842 845 847 849 849 848 848 850 852 853 852 853 853 854 855 854 855 854 854 854 852 852 848 846
777 783 791 796 792 792 797 790 780 773 775 777 778 781 784 788 793 799 806 811 814 818 822 827 832 835 840 843 845 847 849 849 849 849 850 851 851 851 852 853 852 853 852 851 851 852 851 849 847
782 775 781 787 797 803 791 807 789 775 776 775 776 776 779 782 786 791 798 805 808 811 816 821 826 830 832 838 840 842 841 841 842 845 847 850 851 852 851 851 852 852 851 851 850 849 848 847 846
783 774 779 784 788 792 788 796 776 776 785 775 770 771 772 774 779 784 790 796 802 806 810 815 820 825 828 831 834 836 838 839 840 842 846 848 848 848 848 850 851 852 852 853 851 850 848 847 846
773 780 780 781 781 796 782 790 775 768 775 770 766 768 768 771 774 778 783 789 795 801 805 809 815 820 824 827 830 833 835 838 839 841 844 845 846 847 847 850 850 852 852 853 853 851 849 848 848
778 781 798 802 794 794 781 792 773 759 761 771 774 770 766 765 769 774 779 783 789 794 801 806 813 820 826 828 831 834 837 837 837 839 841 843 846 847 847 849 848 850 854 853 854 853 851 848 849
780 776 803 832 806 784 782 796 774 759 764 769 776 777 765 762 761 767 773 782 789 795 801 806 814 820 823 827 831 834 835 836 835 833 834 841 846 846 848 848 850 851 856 856 858 856 853 851 851
772 796 764 783 774 793 776 762 752 748 761 769 775 780 779 778 770 765 772 779 789 796 804 811 817 821 826 831 834 834 838 839 837 836 827 833 841 845 845 846 850 849 856 859 860 859 856 853 854
770 762 788 779 815 815 782 776 776 758 757 769 781 789 792 789 789 791 793 795 799 803 808 813 815 823 823 828 837 842 840 847 841 830 831 835 839 845 848 847 852 855 855 854 857 859 858 856 855
773 778 773 771 777 798 800 777 745 751 756 767 783 793 795 794 799 801 803 806 808 811 815 816 819 811 805 817 821 830 841 846 839 835 835 839 840 849 850 853 856 857 856 858 857 855 857 858 857
757 764 759 778 790 772 781 780 755 760 768 776 788 799 804 804 805 806 808 810 812 814 817 819 821 822 823 821 823 830 835 840 841 839 839 839 846 850 851 852 858 857 859 858 857 858 856 857 855